Weather History for Augusta Bush, GA

Change the Weather History Date:

Saturday, December 22, 2012

  Actual Average Record
Temperature  
Mean Temperature 43 °F 46 °F  
Max Temperature 58 °F 58 °F 80 °F (2013)
Min Temperature 27 °F 34 °F 15 °F (1960)
Degree Days  
Heating Degree Days 22 19  
Month to date heating degree days 240 377  
Since 1 July heating degree days 740 799  
Cooling Degree Days 0 0  
Month to date cooling degree days 0 0  
Year to date cooling degree days 2163 2086  
Moisture  
Dew Point 18 °F    
Average Humidity 43    
Maximum Humidity 69    
Minimum Humidity 17    
Precipitation  
Precipitation 0.00 in 0.11 in 2.65 in (2006)
Month to date precipitation 1.81 2.36  
Year to date precipitation 33.22 42.54  
Sea Level Pressure  
Sea Level Pressure 30.15 in    
Wind  
Wind Speed 6 mph (West)    
Max Wind Speed 16 mph    
Max Gust Speed 21 mph    
Visibility 10 miles    
Events      
T = Trace of Precipitation, MM = Missing Value Source: NWS Daily Summary

Daily Weather History Graph

Daily Weather History Graph

Search for Another Location

Airport:

Trip Planner

Search our weather history database for the weather conditions in past years. The results will help you decide how hot, cold, wet, or windy it might be!

Date:

Astronomy

Dec. 22, 2012 Rise Set
Actual Time 7:28 AM EST 5:25 PM EST
Civil Twilight 7:00 AM EST 5:52 PM EST
Nautical Twilight 6:29 AM EST 6:23 PM EST
Astronomical Twilight 5:59 AM EST 6:53 PM EST
Moon 1:33 PM EST (12/22) 2:21 AM EST (12/22)
Length of Visible Light 10h 51m
Length of Day
9h 56m
Waxing Gibbous, 73% of the Moon is Illuminated
Dec 22
Waxing Gibbous
Dec 28
Full
Jan 4
Last Quarter
Jan 11
New
Jan 18
First Quarter

Hourly Weather History & Observations

Time (EST) Temp. Windchill Dew Point Humidity Pressure Visibility Wind Dir Wind Speed Gust Speed Precip Events Conditions
12:53 AM 37.0 °F 31.0 °F 17.1 °F 44% 30.07 in 10.0 mi West 8.1 mph - N/A   Clear
1:53 AM 36.0 °F 30.3 °F 17.1 °F 46% 30.08 in 10.0 mi West 6.9 mph - N/A   Clear
2:53 AM 36.0 °F 27.5 °F 17.1 °F 46% 30.09 in 10.0 mi West 12.7 mph - N/A   Clear
3:53 AM 36.0 °F 28.0 °F 15.1 °F 43% 30.10 in 10.0 mi West 11.5 mph - N/A   Clear
4:53 AM 35.1 °F 27.9 °F 15.1 °F 44% 30.10 in 10.0 mi West 9.2 mph - N/A   Clear
5:53 AM 33.1 °F 27.7 °F 15.1 °F 48% 30.12 in 10.0 mi WNW 5.8 mph - N/A   Clear
6:53 AM 30.9 °F - 15.1 °F 52% 30.14 in 10.0 mi Calm Calm - N/A   Clear
7:53 AM 30.9 °F 27.5 °F 16.0 °F 54% 30.17 in 10.0 mi West 3.5 mph - N/A   Clear
8:53 AM 37.9 °F 32.1 °F 17.1 °F 43% 30.18 in 10.0 mi WNW 8.1 mph - N/A   Clear
9:53 AM 43.0 °F 38.8 °F 14.0 °F 31% 30.19 in 10.0 mi WNW 6.9 mph - N/A   Clear
10:53 AM 48.0 °F - 12.9 °F 24% 30.20 in 10.0 mi Variable 6.9 mph - N/A   Clear
11:53 AM 51.1 °F - 14.0 °F 23% 30.19 in 10.0 mi Variable 3.5 mph - N/A   Clear
12:53 PM 54.0 °F - 14.0 °F 21% 30.16 in 10.0 mi SW 9.2 mph - N/A   Clear
1:53 PM 57.0 °F - 14.0 °F 18% 30.15 in 10.0 mi WSW 11.5 mph - N/A   Clear
2:53 PM 57.9 °F - 15.1 °F 19% 30.14 in 10.0 mi WSW 10.4 mph - N/A   Clear
3:53 PM 57.0 °F - 15.1 °F 19% 30.14 in 10.0 mi West 9.2 mph - N/A   Clear
4:53 PM 55.0 °F - 17.1 °F 23% 30.15 in 10.0 mi WSW 8.1 mph - N/A   Clear
5:53 PM 46.0 °F 44.8 °F 23.0 °F 40% 30.15 in 10.0 mi WSW 3.5 mph - N/A   Clear
6:53 PM 39.9 °F - 25.0 °F 55% 30.18 in 10.0 mi Calm Calm - N/A   Clear
7:53 PM 35.1 °F - 25.0 °F 67% 30.18 in 10.0 mi Calm Calm - N/A   Clear
8:53 PM 39.0 °F - 19.9 °F 46% 30.18 in 10.0 mi Calm Calm - N/A   Clear
9:53 PM 33.1 °F - 21.9 °F 64% 30.19 in 10.0 mi Calm Calm - N/A   Clear
10:53 PM 30.0 °F - 21.9 °F 72% 30.19 in 10.0 mi Calm Calm - N/A   Clear
11:53 PM 30.9 °F - 21.9 °F 69% 30.19 in 10.0 mi Calm Calm - N/A   Clear